Regional Weather Roundup
Issued by NWS

Home | Current Version | Previous Version | Graphics & Text | Print | Product List | Glossary On
Versions: 1 2 3 4 5 6 7 8 9 10 11 12 13 14 15 16 17 18 19 20 21 22 23 24 25 26 27 28 29 30 31 32 33 34 35 36 37 38 39 40 41 42 43 44 45 46 47 48 49 50
431
ASUS45 KPSR 260910
RWRAZ

ARIZONA HOURLY REGIONAL WEATHER ROUNDUP
NATIONAL WEATHER SERVICE PHOENIX AZ
200 AM MST SUN MAR 26 2017

NOTE: FAIR INDICATES FEW OR NO CLOUDS BELOW 12,000 FEET WITH NO
SIGNIFICANT WEATHER AND/OR OBSTRUCTIONS TO VISIBILITY.

AZZ001>003-036-261000-
NORTHWEST ARIZONA

CITY           SKY/WX    TMP DP  RH WIND       PRES   REMARKS
BULLHEAD CITY  CLEAR     66  37  34 N9        29.91S
KINGMAN        CLEAR     44  28  53 SE10      29.99F
$$

AZZ004>008-015-016-018-261000-
NORTH CENTRAL ARIZONA

CITY           SKY/WX    TMP DP  RH WIND       PRES   REMARKS
GRAND CANYON   CLEAR     28  27  96 W3        30.03F
WILLIAMS       CLEAR     30  25  80 S6        30.04F WCI  24
PRESCOTT       CLEAR     43  31  62 W7        30.01F
FLAGSTAFF      CLEAR     29  25  85 S5        30.02S WCI  24
PAYSON         CLEAR     45  27  49 CALM      30.02S
PAGE           CLEAR     49  36  61 W6        29.95S
$$

AZZ009>014-017-261000-
NORTHEAST ARIZONA

CITY           SKY/WX    TMP DP  RH WIND       PRES   REMARKS
WINSLOW        CLEAR     38  30  73 VRB3      29.98F
SAINT JOHNS    CLEAR     38  26  62 SW8       29.98F WCI  32
WINDOW ROCK    CLEAR     36  29  75 SW5       29.98F WCI  32
SHOW LOW       CLEAR     32  23  69 S6        30.03F WCI  26
$$

AZZ023-261000-
GREATER PHOENIX AREA

CITY           SKY/WX    TMP DP  RH WIND       PRES   REMARKS
PHOENIX        PTCLDY    63  31  30 W5        29.87S
BUCKEYE        CLEAR     52  32  46 CALM      29.89F
LUKE AFB       CLEAR     57  35  42 NE9       29.88R
DEER VALLEY    CLEAR     54  35  48 CALM      29.88F
SCOTTSDALE     CLEAR     57  36  45 CALM      29.90S
MESA-GATEWAY   CLEAR     54  34  47 SE3       29.90S
$$

AZZ027-028-261000-
SOUTHWEST MARICOPA COUNTY AND PINAL COUNTY

CITY           SKY/WX    TMP DP  RH WIND       PRES   REMARKS
CASA GRANDE    NOT AVBL
GILA BEND      FAIR      60  34  37 S7        29.89S
$$

AZZ503-504-507>509-261000-
SOUTHEAST ARIZONA

CITY           SKY/WX    TMP DP  RH WIND       PRES   REMARKS
TUCSON         CLEAR     61  27  27 S5        29.96S
DAVIS-MONTHAN  CLEAR     56  26  31 W6        29.94F
NOGALES        CLEAR     50  30  46 E3        29.98F
SIERRA VISTA   CLEAR     46  28  48 W8        30.00F
DOUGLAS        PTCLDY    50  26  39 NW10      29.98S
SAFFORD        CLEAR     55  25  31 NW9       29.92S
$$

AZZ020-021-025-026-031-261000-
SOUTHWEST ARIZONA

CITY           SKY/WX    TMP DP  RH WIND       PRES   REMARKS
YUMA           CLEAR     60  44  55 W3        29.90S
$$

CAZ031-033-041-043-047-048-061-261000-
SOUTHERN CALIFORNIA

CITY           SKY/WX    TMP DP  RH WIND       PRES   REMARKS
DOWNTOWN L.A.  CLEAR     58  53  84 CALM      30.02F
L.A. AIRPORT   PTCLDY    56  54  93 W3        30.03S
SAN DIEGO      PTCLDY    61  54  77 CALM      30.04F
BURBANK        CLEAR     53  48  83 CALM      30.02S
ONTARIO        MOCLDY    54  51  90 CALM      30.02F
RIVERSIDE      CLEAR     52  51  97 CALM      30.03F
PALM SPRINGS   CLEAR     66  44  45 NW7       29.94S
EL CENTRO NAS  CLEAR     60  42  51 W9        29.92S
IMPERIAL       CLEAR     59  44  57 W8        29.90S
BLYTHE         CLEAR     64  40  41 NW5       29.89F
NEEDLES        CLEAR     66  37  34 W8        29.91S
$$

NVZ020-UTZ003-261000-
SOUTHERN NEVADA-UTAH

CITY           SKY/WX    TMP DP  RH WIND       PRES   REMARKS
LAS VEGAS      PTCLDY    59  36  42 CALM      29.97S
SALT LAKE CITY PTCLDY    37  36  96 SE5       30.02S WCI  33
$$

NMZ009-TXZ055-261000-
NEW MEXICO-WEST TEXAS

CITY           SKY/WX    TMP DP  RH WIND       PRES   REMARKS
ALBUQUERQUE    PTCLDY    46  31  55 CALM      29.95F
EL PASO        MOCLDY    65  22  19 W12G20    29.89F
$$


........................KEY........................
SKY/WX - SKY CONDITION/WEATHER
TMP    - TEMPERATURE IN FAHRENHEIT
DP     - DEW POINT IN FAHRENHEIT
RH     - RELATIVE HUMIDITY IN PERCENT
WIND   - DIRECTION AND SPEED IN MILES PER HOUR (MPH)
VRB    - VARIABLE WIND DIRECTION
PRES   - MEAN SEA LEVEL PRESSURE IN INCHES OF MERCURY
         F - FALLING PRESSURE   R - RISING PRESSURE
         S - STEADY PRESSURE
VSB    - VISIBILITY IN MILES
HX     - HEAT INDEX IN FAHRENHEIT
WCI    - WIND CHILL INDEX IN FAHRENHEIT
TC     - TEMPERATURE IN CELSIUS WHICH IS ALSO KNOWN AS
         TEMPERATURE IN CENTIGRADE
AFB    - AIR FORCE BASE
         LUKE AFB IS LUKE AIR FORCE BASE
         DAVIS-MONTHAN IS DAVIS-MONTHAN AIR FORCE BASE
NAS    - NAVAL AIR STATION
         EL CENTRO NAS IS EL CENTRO NAVAL AIR STATION
N/A    - NOT AVAILABLE





USA.gov is the U.S. government's official web portal to all federal, state and local government web resources and services.